Change the Weather History Date:

Monday, March 25, 2013

  Actual Average Record
Temperature  
Mean Temperature 32 °F -  
Max Temperature 37 °F 39 °F 64 °F (2007)
Min Temperature 28 °F 18 °F -21 °F (1960)
Degree Days  
Heating Degree Days 32    
Moisture  
Dew Point 23 °F    
Average Humidity 65    
Maximum Humidity 78    
Minimum Humidity 53    
Precipitation  
Precipitation 0.00 in - - ()
Sea Level Pressure  
Sea Level Pressure 29.91 in    
Wind  
Wind Speed 11 mph (North)    
Max Wind Speed 17 mph    
Max Gust Speed 22 mph    
Visibility 10 miles    
Events      
Averages and records for this station are not official NWS values.
T = Trace of Precipitation, MM = Missing Value Source: NWS Daily Summary

Daily Weather History Graph

Daily Weather History Graph

Search for Another Location

Airport or City:

Trip Planner

Search our weather history database for the weather conditions in past years. The results will help you decide how hot, cold, wet, or windy it might be!

Date:

Astronomy

Mar. 25, 2013 Rise Set
Actual Time 7:32 AM EDT 7:58 PM EDT
Civil Twilight 7:02 AM EDT 8:28 PM EDT
Nautical Twilight 6:27 AM EDT 9:03 PM EDT
Astronomical Twilight 5:51 AM EDT 9:39 PM EDT
Moon 6:26 PM EDT (3/25) 6:19 AM EDT (3/25)
Length of Visible Light 13h 25m
Length of Day
12h 26m
Waxing Gibbous, 96% of the Moon is Illuminated
Mar 25
Waxing Gibbous
Mar 27
Full
Apr 3
Last Quarter
Apr 10
New
Apr 18
First Quarter

Hourly Weather History & Observations

Time (EDT) Temp. Windchill Dew Point Humidity Pressure Visibility Wind Dir Wind Speed Gust Speed Precip Events Conditions
12:54 AM 30.9 °F 23.5 °F 21.0 °F 67% 29.89 in 10.0 mi NE 8.1 mph - N/A   Overcast
1:54 AM 32.0 °F 22.5 °F 21.9 °F 66% 29.89 in 10.0 mi NE 12.7 mph - N/A   Overcast
2:54 AM 32.0 °F 23.6 °F 21.9 °F 66% 29.89 in 10.0 mi NE 10.4 mph - N/A   Overcast
3:54 AM 30.9 °F 24.3 °F 21.9 °F 69% 29.88 in 10.0 mi NE 6.9 mph - N/A   Overcast
4:54 AM 30.0 °F 20.5 °F 21.9 °F 72% 29.87 in 10.0 mi NNE 11.5 mph - N/A   Overcast
5:54 AM 30.0 °F 22.4 °F 21.0 °F 69% 29.87 in 10.0 mi NNE 8.1 mph - N/A   Overcast
6:54 AM 28.9 °F 20.4 °F 21.0 °F 72% 29.87 in 10.0 mi NNE 9.2 mph - N/A   Overcast
8:54 AM 30.0 °F 21.1 °F 21.9 °F 72% 29.88 in 10.0 mi North 10.4 mph - N/A   Overcast
9:22 AM 30.2 °F 18.9 °F 21.2 °F 69% 29.86 in 10.0 mi NNE 16.1 mph 19.6 mph N/A   Overcast
9:54 AM 30.9 °F 21.2 °F 21.9 °F 69% 29.89 in 10.0 mi NNE 12.7 mph - N/A   Overcast
10:54 AM 32.0 °F 20.8 °F 23.0 °F 69% 29.89 in 10.0 mi NNE 17.3 mph - 0.00 in   Overcast
11:03 AM 33.8 °F 24.3 °F 23.0 °F 65% 29.86 in 10.0 mi NNE 13.8 mph - N/A   Overcast
11:54 AM 35.1 °F 25.9 °F 24.1 °F 64% 29.89 in 10.0 mi North 13.8 mph - N/A   Overcast
12:44 PM 35.6 °F 27.5 °F 23.0 °F 60% 29.87 in 10.0 mi NNE 11.5 mph 21.9 mph N/A   Overcast
12:54 PM 34.0 °F 24.6 °F 24.1 °F 67% 29.90 in 10.0 mi North 13.8 mph - N/A   Overcast
1:12 PM 35.6 °F 25.9 °F 23.0 °F 60% 29.87 in 10.0 mi NNE 16.1 mph - N/A   Overcast
1:54 PM 35.1 °F 25.2 °F 23.0 °F 61% 29.90 in 10.0 mi NNE 16.1 mph - N/A   Overcast
2:54 PM 36.0 °F 27.5 °F 24.1 °F 62% 29.90 in 10.0 mi North 12.7 mph - N/A   Overcast
3:54 PM 37.0 °F 31.0 °F 23.0 °F 57% 29.89 in 10.0 mi North 8.1 mph - N/A   Overcast
4:54 PM 37.9 °F 30.9 °F 21.9 °F 53% 29.90 in 10.0 mi North 10.4 mph - N/A   Overcast
5:54 PM 37.9 °F 30.9 °F 23.0 °F 55% 29.92 in 10.0 mi North 10.4 mph - N/A   Overcast
6:54 PM 37.0 °F 31.0 °F 24.1 °F 59% 29.94 in 10.0 mi North 8.1 mph - N/A   Overcast
7:54 PM 37.0 °F 30.4 °F 24.1 °F 59% 29.96 in 10.0 mi NNW 9.2 mph - N/A   Overcast
8:54 PM 36.0 °F 28.0 °F 25.0 °F 64% 29.98 in 10.0 mi NNW 11.5 mph - N/A   Overcast
9:54 PM 35.1 °F 27.9 °F 26.1 °F 70% 29.99 in 10.0 mi NNW 9.2 mph - N/A   Overcast
10:54 PM 34.0 °F 28.8 °F 26.1 °F 73% 30.00 in 10.0 mi WNW 5.8 mph - N/A   Overcast
11:54 PM 33.1 °F 26.9 °F 27.0 °F 78% 30.01 in 10.0 mi West 6.9 mph - N/A   Overcast